Location: Unspecified
(0.0000°N, 0.0000°E)
Time: 06:40:25
(UTC+00:00)

Vanguard 2 - Pass Details

Date: 16 December 2017
Orbit: 553 x 2939 km, 32.9° (Epoch: 22 June)

Event Time Altitude Azimuth Distance (km) Brightness Sun altitude
Rises 13:32:46 0° 269° (W) 6,142 12.5 56.8°
Reaches altitude 10° 13:39:11 10° 285° (WNW) 4,661 11.9 55.7°
Maximum altitude 13:46:34 18° 322° (NW) 3,403 11.0 54.4°
Drops below altitude 10° 13:52:14 10° 1° (N) 3,410 10.7 53.3°
Sets 13:55:55 0° 21° (NNE) 3,982 10.9 52.6°
